This is the latest recevied weather packets stored in our database for station/object G1SCQ. If no packets are shown the sender has not sent any weather packets the latest 10 day(s).
| Time | Temp. | Humidity | Pressure | Rain* | Wind** | Luminosity | Snow |
|---|---|---|---|---|---|---|---|
| 1777791244 | 12.22° C | 92% | 1008.1 hPa | 0 mm | - | 92 W/m² | - |
| 1777790704 | 12.22° C | 93% | 1008 hPa | 0 mm | - | 85 W/m² | - |
| 1777790164 | 11.67° C | 93% | 1008.3 hPa | 0 mm | - | 68 W/m² | - |
| 1777789624 | 11.67° C | 94% | 1008.4 hPa | 0 mm | - | 36 W/m² | - |
| 1777789084 | 11.67° C | 93% | 1008.1 hPa | 0 mm | - | 34 W/m² | - |
| 1777788544 | 11.67° C | 93% | 1008.2 hPa | 0 mm | - | 44 W/m² | - |
| 1777788004 | 11.11° C | 94% | 1008 hPa | 0 mm | - | 56 W/m² | - |
| 1777787644 | 11.11° C | 94% | 1008.1 hPa | 0 mm | - | 45 W/m² | - |
| 1777787104 | 11.11° C | 95% | 1008.1 hPa | 0 mm | - | 31 W/m² | - |
| 1777786564 | 11.11° C | 95% | 1008.3 hPa | 0 mm | - | 26 W/m² | - |
| 1777786024 | 11.11° C | 95% | 1008.2 hPa | 0 mm | - | 26 W/m² | - |
| 1777785484 | 10.56° C | 95% | 1008.1 hPa | 0 mm | - | 25 W/m² | - |
| 1777784944 | 10.56° C | 95% | 1008.2 hPa | 0 mm | - | 17 W/m² | - |
| 1777784404 | 10.56° C | 93% | 1008.1 hPa | 0 mm | - | 12 W/m² | - |
| 1777784044 | 10.56° C | 94% | 1008.1 hPa | 0 mm | - | 9 W/m² | - |
| 1777783504 | 11.11° C | 94% | 1008.1 hPa | 0 mm | - | 5 W/m² | - |
| 1777782964 | 10.56° C | 94% | 1008.3 hPa | 0 mm | - | 3 W/m² | - |
| 1777782424 | 11.11° C | 94% | 1008.2 hPa | 0 mm | - | 1 W/m² | - |
| 1777781884 | 10.56° C | 93% | 1008.3 hPa | 0 mm | - | 0 W/m² | - |
| 1777781344 | 11.11° C | 93% | 1008.4 hPa | 0 mm | - | 0 W/m² | - |
| 1777780804 | 11.11° C | 92% | 1008.4 hPa | 0 mm | - | 0 W/m² | - |
| 1777780444 | 11.11° C | 92% | 1008.4 hPa | 0 mm | - | 0 W/m² | - |
| 1777779904 | 11.11° C | 91% | 1008.4 hPa | 0 mm | - | 0 W/m² | - |
| 1777779364 | 11.11° C | 91% | 1008.4 hPa | 0 mm | - | 0 W/m² | - |
| 1777778824 | 11.11° C | 90% | 1008.4 hPa | 0 mm | - | 0 W/m² | - |
* Rain latest hour (hover to see other rain measurements)
** Current wind speed in m/s (hover to see current wind gust speed)